Tracking 29511 objects as of 17-Sep-2024
HD Live streaming from Space Station
objects crossing your sky now

FENGYUN 1C DEB

Track FENGYUN 1C DEB now!
10-day predictions


NORAD ID: 31074
Int'l Code: 1999-025BFU
Perigee: 802.5 km
Apogee: 946.3 km
Inclination: 99.0 °
Period: 102.3 minutes
Semi major axis: 7245 km
RCS: 0.0165 m2 (small)
Launch date: May 10, 1999
Source: People's Republic of China (PRC)
Launch site: Taiyaun Space Center, China (TSC)

Note: This is SATELLITE DEBRIS
Your satellite tracking list
Your tracking list is empty




NASA's NSSDC Master Catalog

Two Line Element Set (TLE):
1 31074U 99025BFU 24260.19349017  .00008902  00000-0  50521-2 0  9992
2 31074  98.9605 169.8287 0099190  98.2268 263.0164 14.07697728891953
Source of the keplerian elements: AFSPC